Showing default

UMBRA-05, 55036

Orbit data source: Space-Track

UMBRA-05, 55036 is a payload satellite owned by Umbra Labs (US) in SSO that was launched on Tue, 03 Jan 2023 UTC via an FALCON 9 launch vehicle from the Air Force Eastern Test Range (AFETR). Payloads include a variety of satellites, spacecraft, and rockets equipped with specific instruments for various scientific and technological missions. These include communications satellites like Starlink; space stations such as the ISS; scientific satellites like the Hubble; Earth observation satellites from companies like Planet Labs, Umbra, and HawkEye 360; GPS; miniature CubeSats for education and research; and military/defense satellites.

Loading next visibility...
UMBRA-05 details
Identifier
55036, 2023-001AD
Orbit
SSO
Last TLE update1 day ago
Origin
Flag of USUmbra Labs (US)
ManufacturerUmbra Labs
MissionOperational Commercial Radar Imaging
Bus & MotorUMBRA, Unknown motor
Mass65 kg wet, 60 kg dry
Launch date (UTC)
2023-01-03 (2 years ago)
Launch vehicle
FALCON 9
Launch site
Air Force Eastern Test Range (AFETR)
Object type
Payload
Rocket body
Debris
Shape & HBRBox + 2 Pan + 1 Dish, 3.8 m
Radar Cross Section0.929 m², Large (>1 m²)

Expand to show TLE details & history

TLE from 1 day ago
0 UMBRA-05
1 55036U 23001AD  25035.13223986  .00047920  00000-0  18973-2 0  9996
2 55036  97.3938  92.9386 0004723 332.0883  28.0101 15.25262445115601
Epoch: 2025-02-04T03:10Z
Definitive object data (Epoch: 2025-02-04T03:10:25.523Z)
Latitude-0.00005°
Longitude-89.20966°
Altitude490.231 km
Speed7.621 km/s
True Right ascension06h 11m 45s
True Declination0° 00' 00"
Sunlit
Object was in full shadow at TLE epoch
Visualization TLE readout
Latitude-72.36264°
Longitude-64.0433°
Altitude513.928 km
Speed7.607 km/s
Apparent Right ascension00h 21m 19s
Apparent Declination-70° 49' 37"
Sunlit
Object is in daylight
Visualization observer readout
Local Sidereal Time10:48:28
Azimuth193.707° SSW
Elevation-56.885°
Doppler factor1
Orbital elements
Apogee altitude490.198 km
Perigee altitude483.713 km
Semi-major axis6,865.093 km
Eccentricity0.0004723
Inclination97.3938°
RAAN92.9386°
Arg. of periapsis332.0883°
True anomaly28.03553°
Mean anomaly28.0101°
Eccentric anomaly28.02281°
Mean motion3.81569 °/min
BSTAR0.0018973
Orbital period94.35 mins
Loading maneuver chart data...
Loading historical data...
Loading historical data...
Loading historical data...
Loading historical data...
Loading historical data...
Loading historical data...
Loading historical data...

UMBRA-05 Visibility forecast

Observer location: undefined°, undefined

Span
Click to sort rows by Start time (UTC) header in descending order
Start Az.
Max El. time (UTC)
Max El. Az.
Max El.
End time (UTC)
End Az.
5 mins2025-02-05 15:57:55.078Z47.411° ENE2025-02-05 15:59:55.078Z91.154° ESE23.758°2025-02-05 16:02:55.078Z152.751° SSE
6 mins2025-02-06 04:05:55.078Z186.809° SSW2025-02-06 04:08:55.078Z245.915° WSW35.364°2025-02-06 04:11:55.078Z331.521° NNW
|